Temperature
19 19 19 19 19 19 19 19 19 19 19 19 19 20 20 20 20 20 20 20 20 20 20 20 19 19 19 19 19 19 19 18 18 18 18 18 18 18 18 18 18 18 18
19 19 18 19 19 19 19 19 19 19 19 19 19 19 19 19 20 20 19 19 19 19 19 19 19 19 19 19 19 18 18 18 18 18 18 18 18 18 18 18 18 18 18
18 18 18 18 18 18 18 18 19 19 19 19 19 19 19 19 19 19 19 19 19 19 19 19 19 19 19 19 19 18 18 18 18 18 18 18 18 18 18 18 18 18 18
18 18 18 18 18 18 18 18 18 18 18 18 18 18 19 19 19 19 19 19 19 19 19 19 19 19 19 19 18 18 18 18 18 18 18 18 18 18 18 18 18 18 18
18 18 18 18 18 18 18 18 18 18 18 18 18 18 18 18 18 18 18 19 19 19 19 19 19 19 19 18 18 18 18 18 18 18 18 18 18 18 18 18 18 18 18
18 18 18 18 18 17 17 17 17 17 17 17 17 18 18 18 18 18 18 18 18 18 18 18 18 18 18 18 18 18 18 18 18 18 18 18 18 18 18 18 18 18 18
18 18 18 18 17 17 17 17 17 17 17 17 17 17 17 17 17 17 18 18 18 18 18 18 18 18 18 18 18 18 18 18 18 18 18 18 18 18 18 18 18 18 18
18 18 18 17 17 17 17 17 17 17 17 17 17 17 17 17 17 17 17 17 18 18 18 18 18 18 18 18 18 18 18 18 18 18 18 18 18 18 18 18 18 18 18
18 18 17 17 17 17 17 17 17 16 16 16 16 17 17 17 17 17 17 17 17 17 17 18 18 18 18 18 18 18 18 18 18 18 18 18 18 18 18 18 18 18 18
18 17 17 17 17 16 16 16 16 16 16 16 16 16 16 16 16 17 17 17 17 17 17 17 17 17 18 18 18 18 18 18 18 18 18 18 18 18 18 18 18 18 18
17 17 17 16 16 16 16 16 15 15 16 16 16 16 16 16 16 16 16 16 17 17 17 17 17 17 17 17 17 18 18 18 18 18 18 18 18 18 18 18 18 18 18
17 17 16 16 16 15 15 15 15 15 15 15 15 15 15 15 15 16 16 16 16 16 17 17 17 17 17 17 17 17 17 17 17 18 18 18 18 18 18 18 18 18 18
17 17 16 16 15 15 15 15 15 15 15 15 15 15 15 15 15 15 15 15 16 16 16 16 16 16 17 17 17 17 17 17 17 17 18 18 17 18 18 18 18 18 18
17 17 16 16 15 15 14 14 14 14 14 14 14 14 14 14 15 15 15 15 15 16 16 16 16 16 16 17 17 17 17 17 17 17 17 18 18 18 18 18 18 18 18
17 16 16 15 15 14 14 14 14 14 14 14 14 14 14 14 14 14 14 15 15 15 15 16 16 16 16 16 17 17 17 17 17 17 17 17 17 17 18 18 18 18 18
17 16 16 15 15 14 14 14 14 14 14 14 14 14 13 14 14 14 14 14 15 15 15 15 15 16 16 16 16 16 17 17 17 17 17 17 17 17 18 17 17 18 18
17 16 16 15 15 14 14 14 13 13 13 13 13 13 13 13 13 13 14 14 14 14 15 15 15 15 15 16 16 16 17 17 17 17 17 17 17 17 18 17 17 17 17
17 16 15 15 14 14 14 14 13 13 13 13 13 13 13 13 13 13 13 14 14 14 14 14 15 15 15 15 16 16 16 17 17 17 17 17 17 17 18 18 17 17 17
17 16 15 15 14 14 14 13 13 13 13 13 13 13 13 13 13 13 13 13 13 14 14 14 14 14 15 15 15 16 16 16 17 17 17 17 17 17 17 17 17 17 17
16 16 15 15 14 14 13 13 13 13 13 13 13 12 13 13 13 13 13 13 13 13 14 14 14 14 14 15 15 15 16 16 16 17 17 17 17 17 17 17 17 17 17
16 16 15 14 14 14 13 13 13 13 12 12 12 12 12 12 12 12 12 13 13 13 13 13 13 14 14 14 15 15 16 16 16 16 17 17 17 17 17 17 17 17 17
16 16 15 14 14 13 13 13 13 12 12 12 12 12 12 12 12 12 12 12 12 13 13 13 13 13 14 14 14 14 15 15 16 16 16 17 17 17 17 17 17 17 17
16 15 15 14 14 13 13 13 12 12 12 12 12 12 12 12 12 12 12 12 12 12 12 13 13 13 13 13 13 14 14 15 15 16 16 16 17 17 17 17 17 17 17
16 15 15 14 13 13 13 13 12 12 12 12 12 12 12 12 12 12 12 12 12 12 12 12 12 13 13 13 13 13 14 14 14 15 16 16 16 16 17 17 17 17 17
16 15 15 14 14 13 13 13 12 12 12 12 11 12 11 11 11 11 12 12 12 12 12 12 12 12 12 13 13 13 13 14 14 14 14 15 16 16 16 17 17 17 17
16 15 15 14 14 13 13 13 12 12 12 12 12 11 11 11 11 11 12 12 11 11 11 12 12 12 12 12 13 13 13 13 13 14 14 14 15 16 16 16 17 17 17
Wind_Speed
2 4 6 6 6 7 7 6 6 6 6 7 7 7 7 7 7 6 6 6 5 5 5 5 5 5 6 6 6 6 6 6 6 6 6 6 6 6 6 6 7 7 8
3 4 6 6 6 6 6 6 5 5 5 5 5 6 6 6 6 6 5 5 4 4 4 4 4 4 4 5 5 5 5 5 4 4 4 4 5 5 5 6 6 6 7
3 4 5 6 6 5 5 4 4 4 4 4 4 5 5 5 5 5 5 4 4 4 3 3 3 3 2 3 3 3 4 4 3 3 3 3 2 4 5 6 6 6 7
3 3 3 4 3 3 3 3 3 4 5 5 5 5 5 5 5 6 6 5 5 4 4 3 3 2 2 1 1 2 3 3 3 2 3 2 2 4 5 5 6 6 7
3 2 1 1 0 1 1 3 4 5 5 5 5 6 6 6 6 7 7 6 6 5 5 4 4 3 2 1 0 1 1 2 3 3 2 2 2 3 5 5 5 6 6
3 3 2 2 2 2 3 4 4 5 6 6 6 7 7 7 7 7 7 7 7 7 7 6 5 4 4 3 2 1 1 1 2 2 1 2 3 4 6 6 5 5 6
3 3 3 3 3 3 4 4 5 6 7 7 8 9 9 8 9 9 8 9 9 9 8 7 7 6 5 5 4 3 2 1 1 1 1 2 5 6 6 7 6 6 6
3 3 4 5 5 4 4 5 5 6 7 8 8 8 8 8 8 8 9 9 10 10 9 9 8 8 7 6 5 5 3 2 0 0 1 3 6 7 7 7 7 6 6
3 3 4 5 6 6 6 6 7 7 8 8 9 9 9 9 8 8 8 9 10 10 9 9 9 9 8 7 7 6 5 3 1 1 2 3 6 7 7 8 8 7 7
2 2 3 4 5 6 6 7 8 8 9 9 9 9 9 8 8 8 8 9 9 9 9 9 9 10 9 9 8 7 6 4 2 2 3 4 6 7 8 9 9 9 8
1 1 2 3 4 5 5 6 8 8 9 9 9 9 8 7 7 7 8 10 10 9 8 8 9 10 10 9 8 7 5 3 3 3 4 6 7 7 8 9 9 9 9
1 0 1 2 2 4 4 5 6 7 7 7 7 7 7 6 6 6 8 9 8 7 7 7 7 8 7 5 6 6 3 3 4 4 5 8 7 7 8 9 9 9 9
2 1 1 1 2 3 3 4 4 5 6 7 7 7 6 5 5 5 5 6 7 6 5 5 4 3 3 3 4 4 4 4 4 5 6 8 8 8 9 10 10 10 10
3 3 2 1 1 2 3 3 3 3 4 4 6 6 4 2 3 3 3 4 4 3 3 3 2 3 3 4 5 4 4 4 4 5 7 9 9 9 9 10 11 11 11
4 3 2 1 1 2 2 3 3 3 3 5 5 5 4 2 3 3 2 3 3 3 2 2 2 2 3 3 4 4 4 4 5 5 6 9 10 10 10 10 11 12 12
5 4 2 1 1 2 2 2 2 3 4 5 4 5 5 3 2 2 3 3 3 3 3 2 2 2 3 3 4 4 4 4 5 5 7 7 9 10 11 11 12 13 13
5 3 2 2 0 2 2 3 3 3 4 3 4 6 6 4 3 2 2 3 3 4 3 2 1 2 2 3 3 4 4 4 4 5 6 6 6 8 10 10 11 12 13
4 2 1 0 1 2 2 3 3 3 3 3 4 5 6 6 4 2 2 3 4 3 2 1 1 1 2 2 3 3 3 3 4 4 4 5 5 6 8 10 11 12 13
4 3 1 1 1 1 2 3 3 3 3 3 4 5 6 6 5 3 2 3 3 2 2 1 0 1 2 2 3 3 3 3 4 4 3 4 5 5 6 8 11 12 14
3 2 1 1 1 2 2 3 3 3 3 3 4 5 6 6 5 3 2 3 2 2 2 1 1 1 2 2 3 3 2 3 3 4 4 3 4 5 6 7 8 10 14
3 2 2 1 1 1 1 2 2 3 3 3 4 6 6 7 6 3 3 3 2 2 2 2 1 1 1 1 1 2 2 2 3 3 3 3 4 5 6 6 7 8 9
4 3 2 3 2 1 1 1 1 2 3 3 3 5 6 6 6 4 3 3 2 2 2 2 1 1 1 0 1 0 1 2 2 3 3 4 4 3 5 6 7 8 8
5 5 4 4 3 2 1 1 2 2 3 4 4 4 5 6 5 4 3 2 2 1 1 2 1 0 1 1 1 1 1 1 1 1 2 2 3 4 4 4 7 9 10
6 5 5 5 4 3 1 0 0 1 2 3 3 4 6 5 5 5 4 3 2 1 2 2 1 1 1 1 1 1 1 1 1 1 2 1 2 3 4 4 5 7 10
6 5 5 4 4 3 2 1 1 1 2 3 3 5 5 5 5 5 4 3 3 2 2 2 2 1 1 1 1 1 1 1 1 1 1 2 2 2 3 4 4 5 9
4 4 4 4 5 4 3 2 2 3 3 4 4 5 5 4 4 6 4 4 3 2 3 3 2 1 1 1 1 1 1 1 2 2 2 2 2 2 3 3 4 5 7
Wind_Direction
223 212 203 174 165 160 162 161 156 154 153 150 149 148 147 144 142 140 137 134 129 123 116 106 99 91 88 86 80 75 74 78 81 84 87 92 99 105 107 112 112 108 111
197 188 192 182 176 171 166 163 159 159 165 167 167 167 164 161 161 160 158 155 151 144 135 122 111 100 90 88 80 71 67 68 72 88 98 98 107 114 117 122 121 121 119
153 170 187 195 190 178 174 178 178 185 192 193 193 193 187 189 190 184 180 182 180 174 168 155 139 126 106 92 81 66 56 53 55 85 112 101 115 127 128 132 132 131 130
134 157 190 199 193 191 198 212 216 227 227 225 223 225 219 217 218 211 204 203 204 202 200 196 186 171 155 123 83 61 47 39 44 80 120 151 167 149 141 140 139 138 137
97 115 159 135 69 285 268 269 268 267 263 259 251 249 243 235 232 230 223 218 219 220 221 219 212 205 203 207 217 34 33 36 44 66 116 167 183 175 159 151 147 147 145
70 65 50 52 24 346 324 311 312 307 299 289 280 270 263 256 249 245 239 233 231 229 228 227 223 222 225 233 247 276 325 12 52 60 131 183 196 198 179 167 159 157 156
74 56 39 36 21 2 348 335 324 321 311 305 298 289 282 273 265 259 254 249 245 241 235 231 230 233 235 241 249 261 284 312 104 79 178 209 217 214 194 180 171 165 162
72 42 29 23 18 5 350 346 338 331 327 321 311 302 298 290 279 274 270 266 261 254 248 240 236 238 241 243 248 254 266 285 238 68 222 228 233 219 202 189 182 173 166
60 45 21 14 8 2 355 347 343 337 335 332 329 321 317 315 303 290 282 278 274 267 262 255 247 244 243 244 247 252 261 267 240 240 250 242 243 227 206 195 189 184 175
45 30 14 12 9 2 355 354 355 349 348 346 342 336 335 332 326 316 305 287 279 274 269 265 259 253 250 249 250 252 259 263 247 246 256 259 252 230 208 196 191 188 181
39 16 12 6 4 1 356 3 1 357 353 349 345 341 342 343 336 325 317 301 287 279 277 276 272 265 257 253 253 253 255 240 239 248 253 259 255 232 213 199 192 187 184
201 274 360 351 355 5 4 1 356 353 347 345 341 337 336 335 329 326 322 316 310 299 287 283 277 272 266 258 259 254 240 233 235 244 251 256 252 234 214 203 197 192 186
204 234 280 292 347 5 351 345 348 347 344 341 341 338 335 335 332 331 324 323 322 316 309 290 268 266 259 246 250 244 236 236 236 245 252 254 250 233 214 207 199 196 191
199 229 250 295 345 348 346 340 343 344 341 339 336 340 343 339 330 326 321 314 311 308 296 279 257 240 241 235 236 236 236 238 236 242 248 249 244 227 219 214 204 200 195
207 227 241 295 333 344 355 341 358 346 342 340 344 348 343 322 316 319 318 318 313 308 287 265 252 245 241 240 238 234 234 239 239 239 246 248 238 226 221 217 208 202 197
213 222 216 227 323 15 3 344 339 344 345 352 353 352 350 335 317 319 316 312 307 304 287 261 252 247 245 244 249 240 236 238 237 239 239 244 239 228 224 219 213 203 199
209 213 208 209 58 27 358 348 355 346 352 354 349 351 355 353 337 324 320 316 309 311 300 285 264 249 253 248 256 248 233 228 231 235 236 233 232 227 222 219 215 204 203
189 189 229 148 71 15 355 350 346 349 356 352 352 354 358 356 347 334 322 313 314 320 312 280 247 257 256 253 256 258 244 229 230 230 229 229 221 220 218 216 214 208 209
177 172 168 59 31 350 348 352 348 353 360 356 2 2 357 355 355 343 313 307 321 321 321 301 251 237 258 265 257 250 242 232 232 229 222 223 219 213 208 209 211 209 210
151 149 152 65 358 345 352 356 355 360 357 3 5 359 355 354 353 350 324 323 330 333 333 323 280 254 247 261 277 274 246 230 225 224 219 212 214 211 207 204 207 211 213
144 155 171 197 281 344 360 350 346 337 331 340 344 350 354 355 355 355 348 342 348 345 324 317 284 266 269 258 309 306 288 238 229 231 217 207 214 210 203 202 199 202 212
180 192 202 226 250 263 268 267 263 285 298 298 313 336 350 354 353 357 354 345 347 350 350 351 359 313 283 219 166 224 314 322 275 239 221 216 217 201 205 206 199 199 205
202 208 210 225 239 253 278 359 4 360 346 344 338 336 335 341 345 348 344 344 341 349 326 305 296 116 281 290 227 178 175 241 296 310 250 229 215 206 210 202 202 203 205
215 216 219 229 242 252 251 47 24 350 312 292 299 306 319 334 340 343 342 345 341 331 318 307 318 227 208 276 297 261 219 198 195 329 330 303 254 225 220 220 209 205 206
213 214 221 234 249 254 247 232 242 283 275 295 308 320 330 332 335 342 341 344 341 330 318 317 321 284 213 215 240 261 239 226 200 210 281 315 312 265 235 222 212 207 207
220 221 222 233 253 256 254 252 243 268 293 316 325 329 329 327 330 342 342 343 333 324 314 309 303 289 259 239 238 234 222 214 207 202 224 258 279 279 260 235 217 211 209
Height
1525 1526 1527 1528 1529 1530 1531 1532 1533 1533 1533 1534 1534 1534 1534 1534 1534 1534 1534 1534 1533 1533 1533 1533 1532 1532 1532 1532 1532 1532 1532 1531 1531 1531 1531 1531 1531 1532 1532 1532 1533 1533 1534
1525 1526 1527 1528 1529 1530 1531 1532 1532 1533 1533 1534 1534 1534 1534 1534 1534 1533 1533 1533 1533 1533 1533 1533 1532 1532 1532 1532 1532 1532 1532 1532 1532 1532 1532 1532 1532 1532 1532 1533 1534 1534 1534
1525 1527 1527 1528 1530 1530 1531 1531 1532 1532 1533 1533 1533 1533 1533 1533 1533 1533 1532 1532 1532 1532 1532 1532 1532 1532 1532 1532 1532 1532 1532 1532 1532 1532 1532 1532 1532 1532 1533 1533 1534 1535 1535
1526 1527 1528 1529 1529 1530 1530 1531 1531 1531 1531 1532 1532 1532 1532 1532 1532 1532 1531 1531 1531 1531 1531 1531 1531 1531 1531 1531 1532 1532 1532 1532 1532 1532 1532 1532 1532 1533 1533 1534 1534 1535 1536
1527 1528 1528 1528 1529 1529 1529 1529 1529 1530 1530 1530 1530 1530 1530 1530 1530 1530 1530 1530 1530 1530 1530 1530 1531 1531 1531 1531 1531 1531 1531 1532 1532 1532 1532 1532 1533 1533 1533 1534 1535 1535 1536
1528 1528 1528 1528 1528 1528 1528 1528 1528 1528 1528 1528 1528 1528 1528 1528 1528 1528 1528 1529 1529 1529 1529 1529 1529 1530 1530 1530 1530 1530 1531 1531 1531 1532 1532 1532 1532 1533 1533 1534 1534 1535 1536
1528 1528 1528 1528 1528 1527 1527 1527 1526 1525 1525 1525 1526 1525 1526 1526 1526 1526 1526 1527 1527 1527 1527 1528 1528 1528 1529 1529 1529 1530 1530 1530 1531 1531 1531 1532 1532 1532 1533 1533 1534 1535 1536
1529 1529 1529 1528 1528 1527 1526 1526 1525 1524 1523 1523 1523 1522 1523 1523 1523 1523 1524 1524 1524 1525 1525 1526 1526 1527 1527 1528 1528 1528 1529 1529 1530 1530 1531 1531 1531 1532 1532 1533 1534 1535 1536
1529 1529 1528 1528 1527 1526 1525 1524 1523 1522 1521 1521 1520 1520 1520 1520 1520 1520 1521 1521 1521 1522 1523 1524 1524 1525 1526 1526 1527 1527 1527 1528 1528 1529 1530 1530 1531 1531 1532 1532 1533 1534 1536
1529 1528 1528 1527 1526 1525 1523 1522 1521 1520 1519 1518 1518 1517 1517 1516 1516 1517 1518 1518 1519 1519 1520 1521 1522 1522 1523 1524 1525 1525 1526 1527 1527 1528 1528 1529 1530 1530 1531 1532 1533 1534 1536
1528 1528 1527 1526 1525 1523 1522 1520 1519 1518 1517 1516 1516 1515 1515 1514 1514 1514 1514 1515 1516 1517 1517 1518 1519 1520 1521 1522 1523 1523 1524 1525 1526 1526 1527 1528 1528 1529 1530 1531 1532 1534 1535
1528 1528 1527 1525 1524 1522 1521 1519 1518 1517 1516 1515 1514 1513 1513 1512 1512 1512 1512 1512 1513 1513 1514 1515 1516 1517 1518 1519 1521 1521 1522 1523 1524 1525 1525 1526 1527 1528 1529 1530 1531 1533 1534
1528 1527 1526 1525 1523 1521 1520 1518 1516 1515 1514 1513 1512 1512 1511 1510 1510 1509 1509 1509 1510 1510 1511 1512 1514 1514 1516 1517 1518 1519 1520 1521 1522 1523 1524 1525 1526 1527 1528 1529 1531 1532 1534
1527 1527 1526 1524 1523 1521 1519 1517 1515 1514 1512 1511 1511 1510 1509 1509 1508 1508 1507 1507 1507 1508 1508 1509 1510 1512 1513 1514 1515 1516 1518 1518 1520 1521 1522 1523 1524 1525 1526 1528 1529 1531 1533
1527 1526 1525 1524 1522 1520 1518 1516 1514 1512 1511 1510 1509 1508 1507 1507 1506 1506 1506 1505 1505 1505 1506 1507 1507 1508 1510 1511 1512 1514 1515 1516 1517 1519 1520 1521 1522 1524 1525 1526 1528 1530 1531
1526 1526 1524 1523 1521 1519 1517 1515 1513 1512 1510 1509 1508 1507 1506 1505 1504 1504 1504 1503 1503 1503 1504 1504 1504 1505 1507 1508 1509 1511 1512 1513 1515 1517 1518 1520 1521 1522 1523 1525 1526 1528 1530
1525 1525 1524 1522 1521 1518 1516 1514 1513 1511 1509 1508 1507 1506 1504 1503 1503 1502 1502 1501 1501 1501 1501 1502 1502 1503 1504 1505 1506 1507 1509 1510 1512 1514 1516 1517 1519 1520 1522 1523 1524 1526 1528
1525 1524 1523 1522 1520 1518 1516 1514 1512 1510 1508 1507 1506 1504 1503 1502 1501 1500 1500 1499 1499 1499 1499 1499 1499 1500 1501 1502 1503 1504 1506 1507 1509 1511 1513 1515 1516 1518 1520 1521 1523 1525 1527
1524 1523 1522 1521 1519 1517 1515 1513 1511 1509 1508 1506 1505 1503 1502 1501 1499 1498 1498 1497 1497 1497 1497 1497 1497 1497 1498 1499 1500 1501 1502 1504 1506 1507 1509 1512 1514 1516 1518 1519 1521 1523 1525
1523 1522 1521 1520 1518 1516 1514 1512 1510 1509 1507 1505 1504 1502 1501 1500 1498 1497 1496 1495 1495 1495 1495 1495 1495 1495 1496 1496 1497 1498 1499 1500 1502 1504 1506 1508 1511 1513 1515 1517 1519 1521 1523
1522 1521 1520 1519 1517 1515 1513 1511 1510 1508 1506 1505 1503 1501 1500 1498 1497 1496 1495 1494 1493 1493 1493 1493 1493 1493 1494 1494 1495 1496 1496 1497 1499 1501 1503 1505 1507 1510 1512 1514 1516 1519 1521
1521 1520 1519 1518 1516 1515 1513 1511 1509 1507 1506 1504 1503 1501 1499 1498 1496 1495 1494 1493 1492 1491 1491 1491 1491 1491 1492 1492 1493 1493 1494 1496 1496 1498 1500 1502 1504 1506 1509 1511 1513 1516 1518
1520 1519 1518 1517 1516 1514 1512 1511 1509 1507 1506 1504 1502 1500 1499 1497 1495 1494 1493 1492 1491 1490 1490 1489 1489 1490 1490 1490 1491 1492 1492 1492 1493 1495 1497 1498 1501 1503 1505 1508 1510 1513 1515
1518 1518 1517 1516 1515 1514 1512 1511 1509 1507 1505 1503 1502 1500 1498 1496 1495 1493 1492 1491 1490 1489 1488 1488 1488 1488 1488 1489 1489 1490 1491 1491 1492 1493 1494 1495 1497 1499 1502 1504 1507 1509 1512
1517 1517 1517 1516 1515 1513 1512 1510 1509 1507 1505 1503 1501 1500 1498 1496 1494 1493 1491 1490 1489 1488 1487 1487 1487 1487 1487 1487 1488 1488 1489 1490 1491 1491 1491 1493 1494 1496 1498 1500 1503 1505 1508
1516 1516 1515 1515 1514 1513 1511 1510 1508 1507 1505 1503 1501 1499 1497 1496 1494 1492 1491 1489 1488 1487 1486 1486 1486 1486 1485 1486 1486 1486 1487 1488 1488 1489 1490 1490 1491 1493 1495 1497 1499 1501 1504